• In Österreich
  • Länderverzeichnis
  • Für 7 Tage
  • Wassertemperatur
  • Satellitenkarten
  • Wetterkarte
  • News
  • Widgets
  • user-avatar
    Anmelden

    Stündliche Wetter Mingachevir

    Heute, 16 August, Donnerstag

    Zeit Temperatur Niederschläge Wind Luftdruck Luftfeuchtigkeit
    00:00 +25°C° 0 mm 2 m/S 753 mmHg 54%
    01:00 +25°C° 0 mm 2 m/S 753 mmHg 57%
    02:00 +24°C° 0 mm 2 m/S 753 mmHg 59%
    03:00 +24°C° 0 mm 2 m/S 753 mmHg 61%
    04:00 +24°C° 0 mm 1 m/S 753 mmHg 61%
    05:00 +24°C° 0 mm 1 m/S 753 mmHg 61%
    06:00 +24°C° 0 mm 1 m/S 753 mmHg 62%
    07:00 +26°C° 0 mm 1 m/S 753 mmHg 56%
    08:00 +28°C° 0 mm 1 m/S 753 mmHg 51%
    09:00 +30°C° 0 mm 2 m/S 753 mmHg 45%
    10:00 +31°C° 0 mm 2 m/S 752 mmHg 42%
    11:00 +32°C° 0 mm 2 m/S 752 mmHg 39%
    12:00 +34°C° 0 mm 3 m/S 751 mmHg 36%
    13:00 +35°C° 0 mm 3 m/S 751 mmHg 34%
    14:00 +36°C° 0 mm 3 m/S 750 mmHg 33%
    15:00 +37°C° 0 mm 3 m/S 750 mmHg 32%
    16:00 +36°C° 0 mm 3 m/S 750 mmHg 33%
    17:00 +36°C° 0 mm 3 m/S 750 mmHg 34%
    18:00 +35°C° 0 mm 3 m/S 750 mmHg 35%
    19:00 +34°C° 0 mm 3 m/S 750 mmHg 38%
    20:00 +31°C° 0 mm 3 m/S 751 mmHg 41%
    21:00 +29°C° 0 mm 3 m/S 751 mmHg 45%
    22:00 +29°C° 0 mm 2 m/S 751 mmHg 47%
    23:00 +28°C° 0 mm 2 m/S 751 mmHg 49%

    Morgen, 17 August, Freitag

    Zeit Temperatur Niederschläge Wind Luftdruck Luftfeuchtigkeit
    00:00 +27°C° 0 mm 2 m/S 751 mmHg 51%
    01:00 +27°C° 0 mm 2 m/S 751 mmHg 52%
    02:00 +27°C° 0 mm 1 m/S 751 mmHg 54%
    03:00 +26°C° 0 mm 1 m/S 750 mmHg 55%
    04:00 +26°C° 0 mm 1 m/S 750 mmHg 55%
    05:00 +26°C° 0 mm 1 m/S 750 mmHg 54%
    06:00 +27°C° 0 mm 1 m/S 750 mmHg 53%
    07:00 +29°C° 0 mm 2 m/S 750 mmHg 48%
    08:00 +30°C° 0 mm 2 m/S 750 mmHg 44%
    09:00 +32°C° 0 mm 2 m/S 749 mmHg 39%
    10:00 +34°C° 0 mm 2 m/S 749 mmHg 36%
    11:00 +36°C° 0 mm 2 m/S 749 mmHg 33%
    12:00 +37°C° 0 mm 2 m/S 748 mmHg 30%
    13:00 +38°C° 0 mm 2 m/S 748 mmHg 28%
    14:00 +39°C° 0 mm 3 m/S 747 mmHg 27%
    15:00 +39°C° 0 mm 3 m/S 747 mmHg 25%
    16:00 +39°C° 0 mm 3 m/S 747 mmHg 26%
    17:00 +38°C° 0 mm 3 m/S 747 mmHg 27%
    18:00 +38°C° 0 mm 2 m/S 747 mmHg 29%
    19:00 +36°C° 0 mm 3 m/S 747 mmHg 32%
    20:00 +34°C° 0 mm 3 m/S 748 mmHg 36%
    21:00 +31°C° 0 mm 3 m/S 748 mmHg 39%
    22:00 +30°C° 0 mm 3 m/S 748 mmHg 42%
    23:00 +29°C° 0 mm 2 m/S 748 mmHg 45%

    übermorgen, 18 August, Samstag

    Zeit Temperatur Niederschläge Wind Luftdruck Luftfeuchtigkeit
    00:00 +29°C° 0 mm 2 m/S 748 mmHg 48%
    01:00 +28°C° 0 mm 2 m/S 748 mmHg 49%
    02:00 +28°C° 0 mm 1 m/S 747 mmHg 50%
    03:00 +27°C° 0 mm 1 m/S 747 mmHg 52%
    04:00 +27°C° 0 mm 1 m/S 747 mmHg 52%
    05:00 +27°C° 0 mm 1 m/S 747 mmHg 52%
    06:00 +28°C° 0 mm 1 m/S 747 mmHg 51%
    07:00 +29°C° 0 mm 1 m/S 747 mmHg 46%
    08:00 +31°C° 0 mm 1 m/S 747 mmHg 41%
    09:00 +34°C° 0 mm 2 m/S 747 mmHg 36%
    10:00 +35°C° 0 mm 2 m/S 747 mmHg 33%
    11:00 +37°C° 0 mm 2 m/S 746 mmHg 30%
    12:00 +38°C° 0 mm 3 m/S 746 mmHg 28%
    13:00 +39°C° 0 mm 3 m/S 745 mmHg 26%
    14:00 +40°C° 0 mm 4 m/S 745 mmHg 25%
    15:00 +41°C° 0 mm 4 m/S 744 mmHg 24%
    16:00 +40°C° 0,1 mm 4 m/S 745 mmHg 25%
    17:00 +38°C° 0,1 mm 4 m/S 745 mmHg 27%
    18:00 +38°C° 0,1 mm 4 m/S 745 mmHg 28%
    19:00 +36°C° 0,1 mm 4 m/S 746 mmHg 34%
    20:00 +34°C° 0,1 mm 4 m/S 746 mmHg 40%
    21:00 +32°C° 0,1 mm 5 m/S 747 mmHg 45%
    22:00 +30°C° 0 mm 4 m/S 747 mmHg 47%
    23:00 +29°C° 0 mm 3 m/S 747 mmHg 49%

    19 August, Sonntag

    Zeit Temperatur Niederschläge Wind Luftdruck Luftfeuchtigkeit
    00:00 +29°C° 0 mm 2 m/S 747 mmHg 51%
    01:00 +29°C° 0 mm 2 m/S 747 mmHg 51%
    02:00 +28°C° 0 mm 2 m/S 747 mmHg 51%
    03:00 +28°C° 0 mm 1 m/S 748 mmHg 52%
    04:00 +28°C° 0 mm 2 m/S 748 mmHg 51%
    05:00 +28°C° 0 mm 2 m/S 748 mmHg 50%
    06:00 +28°C° 0 mm 2 m/S 748 mmHg 49%
    07:00 +30°C° 0,1 mm 2 m/S 748 mmHg 45%
    08:00 +31°C° 0,1 mm 3 m/S 748 mmHg 41%
    09:00 +34°C° 0,1 mm 3 m/S 748 mmHg 36%
    10:00 +35°C° 0 mm 3 m/S 748 mmHg 34%
    11:00 +36°C° 0 mm 2 m/S 747 mmHg 33%
    12:00 +37°C° 0 mm 2 m/S 747 mmHg 31%
    13:00 +38°C° 0,1 mm 3 m/S 747 mmHg 29%
    14:00 +38°C° 0,1 mm 3 m/S 747 mmHg 28%
    15:00 +39°C° 0,1 mm 3 m/S 747 mmHg 27%
    16:00 +38°C° 0,1 mm 4 m/S 747 mmHg 29%
    17:00 +37°C° 0,1 mm 4 m/S 747 mmHg 31%
    18:00 +36°C° 0,1 mm 5 m/S 748 mmHg 33%
    19:00 +34°C° 0,2 mm 6 m/S 748 mmHg 36%
    20:00 +33°C° 0,2 mm 7 m/S 749 mmHg 38%
    21:00 +30°C° 0,2 mm 7 m/S 749 mmHg 41%
    22:00 +29°C° 0,1 mm 7 m/S 750 mmHg 43%
    23:00 +29°C° 0,1 mm 6 m/S 750 mmHg 44%

    20 August, Montag

    Zeit Temperatur Niederschläge Wind Luftdruck Luftfeuchtigkeit
    00:00 +28°C° 0,1 mm 6 m/S 750 mmHg 45%
    01:00 +27°C° 0 mm 5 m/S 750 mmHg 47%
    02:00 +27°C° 0 mm 5 m/S 750 mmHg 49%
    03:00 +26°C° 0 mm 4 m/S 750 mmHg 51%
    04:00 +26°C° 0 mm 4 m/S 751 mmHg 52%
    05:00 +26°C° 0 mm 4 m/S 751 mmHg 54%
    06:00 +26°C° 0 mm 4 m/S 751 mmHg 55%
    07:00 +27°C° 0 mm 5 m/S 751 mmHg 51%
    08:00 +28°C° 0 mm 5 m/S 751 mmHg 47%
    09:00 +30°C° 0 mm 6 m/S 751 mmHg 43%
    10:00 +32°C° 0 mm 6 m/S 751 mmHg 40%
    11:00 +33°C° 0 mm 6 m/S 751 mmHg 37%
    12:00 +34°C° 0 mm 6 m/S 751 mmHg 33%
    13:00 +35°C° 0 mm 6 m/S 750 mmHg 33%
    14:00 +35°C° 0 mm 6 m/S 750 mmHg 32%
    15:00 +35°C° 0 mm 6 m/S 750 mmHg 31%
    16:00 +34°C° 0 mm 6 m/S 750 mmHg 32%
    17:00 +33°C° 0 mm 6 m/S 750 mmHg 34%
    18:00 +32°C° 0 mm 7 m/S 751 mmHg 35%
    19:00 +30°C° 0 mm 6 m/S 751 mmHg 39%
    20:00 +28°C° 0 mm 5 m/S 752 mmHg 43%
    21:00 +26°C° 0 mm 5 m/S 752 mmHg 46%
    22:00 +26°C° 0 mm 4 m/S 752 mmHg 50%
    23:00 +25°C° 0 mm 3 m/S 752 mmHg 53%

    21 August, Dienstag

    Zeit Temperatur Niederschläge Wind Luftdruck Luftfeuchtigkeit
    00:00 +24°C° 0 mm 3 m/S 752 mmHg 56%
    01:00 +24°C° 0 mm 2 m/S 752 mmHg 58%
    02:00 +23°C° 0 mm 2 m/S 752 mmHg 59%
    03:00 +23°C° 0 mm 1 m/S 752 mmHg 61%
    04:00 +23°C° 0 mm 1 m/S 752 mmHg 60%
    05:00 +23°C° 0 mm 1 m/S 753 mmHg 60%
    06:00 +24°C° 0 mm 1 m/S 753 mmHg 59%
    07:00 +25°C° 0 mm 1 m/S 753 mmHg 52%
    08:00 +27°C° 0 mm 2 m/S 753 mmHg 46%
    09:00 +29°C° 0 mm 2 m/S 752 mmHg 39%
    10:00 +30°C° 0 mm 3 m/S 752 mmHg 36%
    11:00 +33°C° 0 mm 3 m/S 752 mmHg 33%
    12:00 +34°C° 0 mm 3 m/S 751 mmHg 30%
    13:00 +35°C° 0 mm 4 m/S 751 mmHg 29%
    14:00 +35°C° 0 mm 4 m/S 751 mmHg 27%
    15:00 +36°C° 0 mm 4 m/S 750 mmHg 26%
    16:00 +35°C° 0 mm 4 m/S 751 mmHg 27%
    17:00 +35°C° 0 mm 4 m/S 751 mmHg 28%
    18:00 +34°C° 0 mm 4 m/S 751 mmHg 29%
    19:00 +33°C° 0 mm 4 m/S 752 mmHg 31%
    20:00 +30°C° 0 mm 4 m/S 752 mmHg 34%
    21:00 +28°C° 0 mm 4 m/S 753 mmHg 37%
    22:00 +27°C° 0 mm 4 m/S 753 mmHg 39%
    23:00 +27°C° 0 mm 3 m/S 753 mmHg 42%
    Mehr zeigen